TIME,DELAY(SENSOR),PRES,OXYGEN,RAWTEMP,T(OPTODE),TCPHASE,FLUOR,BETA(BETA700),BETA(BETA412),BETA(BETA440),CDOM,C(CSC),ED(ED412.40),ED(ED444.00),ED(ED489.70),ED(ED554.30),LU(LU411.80),LU(LU443.40),LU(LU489.60),LU(LU554.10),COMP,TILTX,TILTY,CHECK
1372824552,5808,840.1199951171875000,47.2572097778320300,663.6547241210938000,4.5075821876525880,53.9783897399902340,53,100,84,78,79,15448,2147755803,2147423570,2148013613,2147874294,2147643273,2147055259,2148263085,2147196946,1494,4,13,41265
1372828148,5805,894.0300292968750000,49.1235389709472660,669.9984741210938000,4.2982439994812010,53.7876396179199200,53,100,85,79,79,15448,2147754413,2147428781,2148012681,2147875236,2147640539,2147057865,2148265142,2147194313,3396,4,13,28580
1372831748,5805,917.2700195312500000,49.9171218872070300,670.3079833984375000,4.2880210876464840,53.6855506896972660,53,102,88,79,80,15447,2147753773,2147424338,2148011428,2147877046,2147643227,2147056237,2148258084,2147197650,124,4,13,33346
1372835348,5810,942.6099853515625000,49.9637718200683600,673.7078247070312000,4.1756358146667480,53.7254486083984400,53,98,85,78,79,15444,2147754413,2147425106,2148011190,2147873810,2147642139,2147051072,2148259721,2147198720,138,4,13,37981
1372838948,5805,950.2299804687500000,50.9174880981445300,673.9965209960938000,4.1660881042480470,53.5969810485839840,52,98,87,78,80,15446,2147754971,2147424941,2148013202,2147873892,2147642779,2147052068,2148258450,2147194852,222,4,13,49360
1372842548,5810,948.7600097656250000,49.2845687866210940,673.4968261718750000,4.1826171875000000,53.8122596740722660,53,114,86,79,80,15441,2147753444,2147422619,2148015881,2147872667,2147644333,2147058889,2148263414,2147198016,591,4,13,19812
1372846148,5810,975.2800292968750000,55.3133316040039060,676.3649902343750000,4.0877079963684080,53.0376892089843750,53,96,86,79,79,15446,2147757476,2147423405,2148011254,2147875958,2147646070,2147057426,2148262299,2147197897,3456,4,13,36124
1372849748,5811,976.3900146484375000,55.1460609436035160,676.3781127929688000,4.0872750282287600,53.0562286376953100,52,97,86,78,80,15444,2147755254,2147426304,2148015369,2147875437,2147643538,2147055460,2148260717,2147195666,3050,3,13,27143
1372853348,5811,984.1599731445312000,54.7651290893554700,675.9033813476562000,4.1029868125915530,53.0999717712402340,52,98,86,78,79,15447,2147757174,2147425499,2148014235,2147876086,2147641801,2147053796,2148261138,2147194971,3264,3,13,10267
1372856948,5808,994.1900024414062000,54.4935188293457000,675.7341918945312000,4.1085891723632810,53.1359596252441400,52,99,83,79,80,15444,2147756763,2147423488,2148012790,2147873810,2147645257,2147051757,2148264265,2147195785,364,4,13,4167
1372860548,5809,985.1300048828125000,53.8568305969238300,675.7302856445312000,4.1087188720703125,53.2177696228027340,51,99,87,79,80,15444,2147754916,2147426861,2148012653,2147872612,2147642797,2147051693,2148260580,2147195602,246,4,13,48550
1372864148,5810,979.8499755859375000,55.4439888000488300,677.0083007812500000,4.0664081573486330,53.0238189697265600,52,95,85,78,80,15447,2147754779,2147426569,2148013229,2147875373,2147642477,2147054555,2148265892,2147199552,3506,4,13,41700
1372867748,5810,975.0399780273438000,55.7390289306640600,677.5399169921875000,4.0488028526306150,52.9941902160644500,51,97,83,79,79,15445,2147756635,2147427136,2148011949,2147876013,2147641472,2147056237,2148262326,2147194157,244,4,13,21503
1372871348,5809,973.3200073242188000,56.3808784484863300,678.6237182617188000,4.0128989219665530,52.9295806884765600,53,97,92,78,80,15440,2147756141,2147425353,2148012233,2147879268,2147643602,2147049334,2148262573,2147194816,379,4,13,24048
1372874948,5809,977.9299926757812000,56.3931007385253900,679.3026733398438000,3.9904000759124756,52.9315185546875000,52,105,82,79,78,15441,2147757010,2147425938,2148013449,2147873801,2147642441,2147056667,2148262180,2147193718,194,4,13,21493
1372878548,5807,980.1500244140625000,55.9759788513183600,678.2302246093750000,4.0259380340576170,52.9751281738281250,52,97,85,78,79,15443,2147757494,2147423689,2148012507,2147876781,2147643190,2147050880,2148259026,2147196553,3306,4,13,36405
1372882148,5810,982.6099853515625000,55.9752006530761700,678.4984741210938000,4.0170478820800780,52.9749488830566400,52,97,85,78,80,15440,2147755401,2147424411,2148012571,2147876608,2147644708,2147052553,2148264018,2147196278,3431,4,13,48653
1372885748,5811,983.8200073242188000,55.9053802490234400,678.3668823242188000,4.0214061737060550,52.9864311218261700,54,97,85,79,79,15434,2147754916,2147426267,2148015341,2147876105,2147642441,2147054006,2148260324,2147195474,150,4,13,2051
1372889348,5812,979.3900146484375000,55.5228500366210940,677.5275878906250000,4.0492119789123535,53.0231094360351560,52,101,83,78,79,15435,2147753536,2147423369,2148012489,2147875657,2147643885,2147057042,2148268452,2147199661,13,4,13,12064
1372892948,5808,979.7199707031250000,55.6139297485351560,678.1121826171875000,4.0298438072204590,53.0182495117187500,53,97,82,79,79,15438,2147756251,2147423762,2148013467,2147877129,2147641654,2147051556,2148260672,2147194432,14,4,13,63374
1372896548,5810,986.1099853515625000,55.6735191345214840,677.1619262695312000,4.0613188743591310,53.0019187927246100,52,100,85,77,79,15336,2147752868,2147425161,2148007808,2147873883,2147644434,2147050825,2148259812,2147196022,1185,4,13,6891
1372900148,5813,994.3699951171875000,55.2010498046875000,676.3270874023438000,4.0889611244201660,53.0535888671875000,52,97,87,77,79,15413,2147755008,2147427172,2148009846,2147875684,2147644598,2147050212,2148262628,2147193938,83,4,13,32587
1372903748,5806,987.7999877929688000,53.6224708557128900,675.7639770507812000,4.1076030731201170,53.2513389587402340,52,98,88,80,79,15401,2147754733,2147424246,2148011803,2147877028,2147644416,2147053805,2148257892,2147197001,2732,3,13,11715
1372907348,5805,994.3300170898438000,53.4673614501953100,675.8812866210938000,4.1037178039550780,53.2730216979980500,53,98,84,79,79,15398,2147757275,2147424841,2148013458,2147872813,2147644781,2147056905,2148258779,2147196379,3389,4,13,37742
1372910948,5808,992.9099731445312000,54.1281509399414060,675.8471069335938000,4.1048507690429690,53.1849098205566400,52,192,89,78,80,15390,2147756251,2147430418,2148013860,2147875821,2147645878,2147056036,2148263396,2147198006,2242,4,13,14887
1372914548,5810,987.0399780273438000,55.0848007202148440,676.6223754882812000,4.0791850090026855,53.0712203979492200,52,96,87,79,79,15396,2147756132,2147426102,2148014034,2147875922,2147642816,2147056566,2148264411,2147195940,3371,4,13,9422
1372918148,5808,983.7199707031250000,54.7263107299804700,676.7844848632812000,4.0738158226013180,53.1174507141113300,52,97,84,78,80,15396,2147753700,2147425792,2148013430,2147874358,2147639369,2147058011,2148261312,2147198308,641,4,13,44955
1372921748,5806,991.4400024414062000,55.3300399780273440,676.4436035156250000,4.0851039886474610,53.0346908569335940,53,96,87,78,79,15391,2147756717,2147428342,2148011977,2147873874,2147644562,2147061037,2148260461,2147197458,136,4,13,39187
1372925348,5808,994.6199951171875000,53.9069900512695300,675.8884887695312000,4.1034808158874510,53.2128906250000000,52,96,85,79,79,15388,2147753289,2147425417,2148010605,2147875300,2147644516,2147054473,2148262747,2147200329,551,4,13,23887
1372928948,5807,997.9199829101562000,54.5275611877441400,675.9107055664062000,4.1027469635009770,53.1348609924316400,52,96,87,78,79,15382,2147753024,2147424365,2148011410,2147874724,2147639917,2147059904,2148265645,2147195867,3007,3,13,62267
1372932548,5806,995.8800048828125000,54.2209892272949200,676.3261718750000000,4.0889930725097660,53.1808509826660160,52,98,83,78,80,15388,2147752722,2147421165,2148010660,2147872137,2147648036,2147057051,2148261942,2147195748,3576,3,13,1802
1372936148,5807,986.3099975585938000,54.6030998229980500,676.6630859375000000,4.0778369903564450,53.1317596435546900,52,97,85,78,79,15390,2147751323,2147423405,2148009398,2147877613,2147641837,2147054866,2148265481,2147194313,3522,4,13,7267
1372939748,5809,994.3599853515625000,54.9275512695312500,676.6135864257812000,4.0794749259948730,53.0889091491699200,52,99,87,78,80,15389,2147755145,2147422893,2148011328,2147875547,2147645714,2147049097,2148264128,2147197330,96,4,13,30337
1372943348,5810,990.7199707031250000,53.9909896850585940,676.0532836914062000,4.0980238914489750,53.2050209045410160,52,96,88,78,78,15390,2147754404,2147424155,2148012690,2147876973,2147639725,2147054866,2148257453,2147196370,403,4,13,20976
1372946948,5808,995.0399780273438000,54.7275390625000000,676.6561279296875000,4.0780677795410160,53.1149406433105500,53,97,88,79,80,15372,2147754459,2147425581,2148012434,2147876260,2147644617,2147057371,2148259675,2147196443,3393,4,13,43964
1372950548,5810,989.9000244140625000,54.8954505920410160,676.7620239257812000,4.0745620727539060,53.0938796997070300,53,97,82,77,79,15374,2147755053,2147426532,2148012507,2147873856,2147639798,2147053705,2148262729,2147197979,3403,3,13,65098
1372954148,5808,978.7000122070312000,55.6304817199707000,678.5560302734375000,4.0151438713073730,53.0229606628418000,52,98,89,77,80,15370,2147755236,2147425947,2148012096,2147874560,2147644022,2147056118,2148267858,2147200027,102,4,13,7442
1372957748,5808,982.6500244140625000,55.6202392578125000,679.2548828125000000,3.9919829368591310,53.0317001342773440,52,97,82,79,79,15371,2147752301,2147427072,2148013558,2147875565,2147642861,2147053787,2148259812,2147193060,2878,4,13,48089
1372961348,5808,979.7600097656250000,55.4942283630371100,680.4353027343750000,3.9528579711914062,53.0675010681152340,52,98,89,78,79,15372,2147757961,2147426715,2148011300,2147876507,2147642395,2147053750,2148267529,2147193225,3083,4,13,43249
1372964948,5807,981.2399902343750000,56.0058708190918000,679.9135742187500000,3.9701540470123290,52.9895782470703100,53,95,81,78,80,15372,2147756617,2147425344,2148013650,2147875538,2147641069,2147051675,2148260260,2147193910,184,4,13,43910
1372968548,5811,980.7199707031250000,55.7163200378418000,680.4492797851562000,3.9523940086364746,53.0404396057128900,52,98,86,79,79,15372,2147757284,2147428617,2148015149,2147874752,2147640466,2147052864,2148260352,2147191616,3523,4,13,50726
1372968656,5808,980.8400268554688000,55.6595191955566400,680.3828125000000000,3.9545989036560060,53.0449104309082000,51,97,86,79,80,15436,2147752283,2147427776,2148013220,2147875730,2147642788,2147050816,2148264018,2147190116,3426,4,13,37901
